map of HHI home
HHI - Airport
Location
City:  Wahiawa, Oahu, Hawaii, United States
Name:Wheeler AAF Airport
ICAO:PHHI
IATA:HHI
FAA LID:HHI

Details
Type:Airport (Airfield)
Use:Military
Latitude:2128'53"N (21.481444)
Longitude:15802'16"W (-158.037832)
Datum:WGS 1984
Elevation:843 ft (257 m)
Variation:9.46E (WMM2015 magnetic declination)
-0.04 annual change
Runways:1
Longest:5608 × 291 ft (1709 × 88.5 m), paved

Time
Time Zone:UTC-10
Local Time:

Weather
METAR:PHHI 211916Z AUTO 08007KT 10SM BKN025 26/21 A2999 RMK AO2 SLP145 $

Related Locations
Nearby:
Farthest:GNZ: 12428 mi / 20001 km
Ghanzi [Ghanzi Airport], GH, BW

Find:

   beyond  
but within

Other Information
Maps:
NOTAMs:
Links:
Sources:

  
  • flag of United States
  • flag of Hawaii
  

Sectional Chart

Flight Planning
at skyvector.com

Satellite Image

Google Maps Satellite view

 

Copyright © 2004-2018 Karl L. Swartz. All rights reserved.
The Great Circle Mapper name and logo are trademarks of the Great Circle Mapper.
All other trademarks mentioned herein belong to their respective owners.
Please see credits for attibutions and further copyright information.

  Follow gcmap on Facebook Follow gcmap on Twitter Follow gcmap on Google+ GCmap on LinkedIn

hCard Microformat

Geo Microformat